Location: ??????
(56.0120°N, 39.1740°E)
Time: 17:13:20
(UTC+00:00)

Cosmos 1805 - Pass Details

Date: 14 April 2026
Orbit: 415 x 415 km, 82.5° (Epoch: 16 May)

Event Time Altitude Azimuth Distance (km) Brightness Sun altitude
Rises 22:19:07 0° 352° (N) 2,393 7.7 -23.3°
Reaches altitude 10° 22:21:15 10° 0° (N) 1,522 6.6 -23.2°
Enters shadow 22:24:10 39° 60° (ENE) 655 4.0 -23.1°
